Location: Alberovice
(49.6460°N, 15.1060°E)
Time: 14:12:37
(UTC+00:00)

Daily predictions for brighter satellites

Satellite Brightness Start Highest point End
(mag) Time Altitude Azimuth Time Altitude Azimuth Time Altitude Azimuth
Cosmos 1408 Rocket 3.7 15:34:54 10° NNW 15:39:18 80° W 15:43:39 10° S
Sich 1 4.1 15:37:05 10° NNE 15:40:45 25° ENE 15:44:24 10° SE
Cosmos 2219 Rocket 2.3 15:35:25 10° SSW 15:41:05 87° ESE 15:46:45 10° NNE
MOS 1-B 4.4 15:37:29 10° SSE 15:43:15 75° ENE 15:49:05 10° NNW
Cosmos 1862 3.5 15:39:41 10° N 15:43:39 51° ENE 15:47:34 10° SSE
Okean-O 4.5 15:43:27 10° ENE 15:45:00 12° NE 15:46:32 10° NNE
H-2A R/B 3.9 15:43:57 10° ENE 15:45:06 11° NE 15:46:13 10° NE
Cosmos 44 4.3 15:41:32 10° NNW 15:46:09 31° NE 15:50:54 10° E
Cosmos 1814 Rocket 4.1 15:40:50 10° SSW 15:46:10 79° ESE 15:51:30 10° NNE
Cosmos 1980 Rocket 4.4 15:45:56 10° NW 15:48:00 12° NNW 15:50:04 10° N
Cosmos 724 4.4 15:42:57 10° SSW 15:48:50 77° SE 15:54:55 10° NE
Cosmos 1842 Rocket 3.5 15:44:57 10° S 15:49:16 77° E 15:53:36 10° NNE
CZ-4B R/B 3.2 15:44:35 10° SE 15:49:47 55° ENE 15:54:57 10° N
SL-16 R/B 4.1 15:46:37 10° W 15:51:02 23° NW 15:55:27 10° N
AQUARIUS 4.5 15:47:46 10° SE 15:52:02 44° ENE 15:56:19 10° N
Cosmos 2237 Rocket 2.7 15:46:59 10° S 15:52:10 39° ESE 15:57:22 10° NE
Nadezhda 1 Rocket 4.2 15:46:21 10° SSE 15:52:28 54° E 15:58:41 10° NNE
ADEOS Rocket 3.6 15:45:58 10° NNE 15:53:39 78° ESE 16:01:27 10° S
Okean O Rocket 1.8 15:49:47 10° SE 15:53:56 46° ENE 15:58:08 10° N
Cosmos 1805 Rocket 3.9 15:49:57 10° N 15:54:14 42° ENE 15:58:28 10° SE
GENESIS II 4.1 15:51:26 10° NW 15:55:25 71° NE 15:59:18 10° SE
Cosmos 1570 Rocket 4.3 15:53:14 10° SSW 15:58:33 74° WNW 16:03:51 10° NNE
Cosmos 2369 Rocket 3.6 15:58:16 10° N 16:02:21 20° NE 16:06:00 11° E
CORIOLIS 4.2 15:57:16 10° SSE 16:02:34 58° ENE 16:07:54 10° N
CZ-4C R/B 3.0 15:59:01 10° NNE 16:02:39 76° ESE 16:06:17 10° S
Cosmos 2322 4.4 15:57:59 10° SW 16:03:31 53° NW 16:09:07 10° NNE
FengYun 1-2 T 4.4 15:58:30 10° SE 16:03:48 49° ENE 16:09:06 10° N
CZ-4 R/B 3.0 16:02:50 10° E 16:04:48 14° ENE 16:06:53 10° NNE
NOSS 0 Rocket 4.0 15:59:44 10° SSW 16:05:53 64° ESE 16:12:03 10° NE
Cosmos 2154 Rocket 4.0 15:59:40 10° N 16:06:02 78° E 16:12:23 10° SSE
Cosmos 1900 4.4 16:02:43 10° SW 16:07:50 89° SE 16:13:02 10° NE
Landsat 5 3.6 16:03:43 10° NNE 16:08:06 80° ESE 16:12:35 10° SSW
USA 215 4.1 16:03:27 11° ENE 16:09:08 35° SE 16:15:01 10° SSW
Cosmos 1980 3.8 16:04:56 10° S 16:10:29 57° ESE 16:16:03 10° NE
YAOGAN 6 2.8 16:07:47 10° S 16:11:27 78° WSW 16:15:05 10° NNW
Cosmos 405 3.7 16:10:08 10° SSW 16:13:33 53° WNW 16:17:00 10° N
Cosmos 389 Rocket 3.3 16:11:48 10° SSE 16:14:50 29° E 16:17:22 13° NE
Cosmos 1939 Rocket 3.6 16:11:34 10° SE 16:14:55 29° ENE 16:18:18 10° N
Cosmos 2341 Rocket 4.1 16:10:14 10° N 16:16:23 53° ENE 16:22:32 10° SSE
H-2A R/B 4.4 16:14:03 10° SSW 16:17:38 38° W 16:21:18 10° NNW
H-2A R/B 1.9 16:15:57 10° NNE 16:20:08 81° ESE 16:24:22 10° SSW
Cosmos 1867 4.4 16:18:45 10° S 16:23:33 33° ESE 16:26:55 17° ENE
ISS -3.4 16:22:50 10° SW 16:26:07 55° SSE 16:27:59 23° E
Cosmos 405 Rocket 3.9 16:24:03 10° NNW 16:27:49 47° W 16:31:37 10° S
Cosmos 1943 Rocket 2.8 16:22:51 10° NNW 16:27:54 34° NE 16:32:39 11° ESE
Cosmos 1818 4.4 16:23:10 10° NW 16:28:31 55° WSW 16:33:49 10° SSE
Cosmos 2285 Rocket 4.2 16:24:12 10° NNW 16:30:26 49° ENE 16:36:35 10° SE
Cosmos 1633 Rocket 3.4 16:26:18 10° N 16:30:27 40° ENE 16:34:34 10° SE
Cosmos 2297 3.8 16:24:54 10° NNW 16:30:29 54° NE 16:36:04 10° SE
CZ-2C R/B 3.7 16:27:06 10° ESE 16:31:26 29° ENE 16:35:36 10° N
CSL-04 DEB 4.3 16:28:12 10° NNE 16:32:17 77° ESE 16:36:27 10° SSW
CRYOSAT 2 4.3 16:29:10 10° N 16:34:05 87° E 16:38:59 10° S
CZ-4B R/B 1.5 16:34:26 24° NE 16:35:54 43° E 16:38:52 10° S
Cosmos 1356 3.2 16:33:06 10° N 16:36:33 73° ENE 16:39:58 10° SSE
Cosmos 1125 Rocket 4.0 16:31:26 10° NNW 16:36:36 63° WSW 16:41:43 10° S
SL-8 Rocket 4.0 16:30:58 10° N 16:37:06 57° ENE 16:43:15 10° SSE
Meteor 2-12 Rocket 4.4 16:32:25 10° N 16:38:38 83° E 16:44:46 10° SSE
ARGOS 4.3 16:38:13 21° ENE 16:38:42 21° ENE 16:42:39 10° N
Cosmos 2322 Rocket 4.4 16:35:23 10° WNW 16:38:44 16° NNW 16:42:07 10° N
SL-16 R/B 2.8 16:35:41 10° S 16:40:46 36° ESE 16:43:43 21° ENE
Cosmos 2221 4.1 16:37:34 10° SW 16:41:35 36° WNW 16:45:35 10° N
SMAP 3.7 16:37:07 10° S 16:41:42 58° W 16:46:20 10° NNW
CREW DRAGON DEMO-1 DEB 2.9 16:38:57 10° WNW 16:41:55 68° SSW 16:43:19 28° SE
USA 267 3.2 16:37:37 12° ESE 16:43:41 74° NNE 16:50:13 10° WNW
Cosmos 2181 Rocket 4.1 16:42:10 10° SSE 16:48:24 55° E 16:54:37 10° NNE
Cosmos 1933 3.5 16:45:36 10° S 16:49:29 49° E 16:51:57 21° NNE
Cosmos 1606 2.6 16:46:12 10° S 16:50:06 87° E 16:54:01 10° N
SAR-Lupe-4 4.0 16:50:56 37° E 16:51:13 37° E 16:54:34 10° SSE
SL-24 R/B 4.3 16:52:24 33° ENE 16:53:12 37° E 16:56:45 10° SSE
Cosmos 2333 Rocket 3.8 16:53:42 10° WSW 16:58:38 30° NW 17:03:36 10° NNE
IRS-1C Rocket 4.0 16:55:01 10° SSE 17:00:16 75° ENE 17:05:34 10° NNW
CZ-4 R/B 4.3 16:58:47 10° SSE 17:02:53 66° ENE 17:07:01 10° N
YAOGAN 1 2.9 17:01:44 33° ESE 17:03:00 42° ENE 17:07:05 10° N
COSMOS 2428 4.2 16:59:08 10° WSW 17:04:18 33° NW 17:09:29 10° NNE
Cosmos 1782 4.2 17:00:48 10° SSE 17:02:38 23° SE 17:02:38 23° SE
Meteor 1-20 Rocket 4.2 16:59:04 10° NNW 17:04:58 86° ENE 17:10:49 10° SSE
Cosmos 2278 Rocket 4.3 17:01:09 10° NW 17:05:57 29° WSW 17:10:44 10° SSW
PSLV R/B 4.2 17:06:30 43° ESE 17:06:30 43° ESE 17:10:10 10° S
Cosmos 1470 Rocket 3.5 17:02:37 10° N 17:06:53 53° ENE 17:11:06 10° SSE
SAR-Lupe-1 4.1 17:08:28 56° ESE 17:08:28 56° ESE 17:11:55 10° S
ERS-2 2.1 17:08:37 25° N 17:10:40 79° WNW 17:14:19 10° SSW
USA 281 3.1 17:05:48 10° SE 17:12:21 78° ENE 17:18:56 10° NNW
COSMO-SKYMED 1 2.4 17:10:27 25° NNE 17:12:58 73° ESE 17:17:18 10° S
Helios 1A Rocket 2.8 17:11:26 29° SE 17:13:21 61° ENE 17:17:20 10° N
USA 81 4.0 17:08:47 10° N 17:14:06 87° W 17:19:23 10° S
MOS 1 Rocket 3.9 17:14:02 38° ENE 17:15:05 42° E 17:20:13 10° SSE
Okean-O 2.5 17:16:17 10° SSE 17:20:41 74° ENE 17:25:08 10° N
Cosmos 773 Rocket 4.1 17:15:37 10° S 17:20:43 54° ESE 17:21:42 47° ENE
CSL-04 Debris 4.3 17:20:25 31° SE 17:22:44 52° ENE 17:28:04 10° N
H-2A R/B 2.1 17:21:16 32° SE 17:23:28 54° ENE 17:28:31 10° N
Lacrosse 5 rocket 2.3 17:20:41 10° SSW 17:22:55 28° S 17:22:55 28° S
Cosmos 1602 3.6 17:20:21 10° N 17:24:18 80° ENE 17:24:18 80° ENE
Cosmos 2218 Rocket 4.0 17:18:48 10° NNW 17:24:58 80° W 17:31:07 10° S
CZ-2D R/B 3.4 17:21:20 10° S 17:25:07 71° WSW 17:28:59 10° NNW
Cosmos 2219 Rocket 4.1 17:21:21 10° W 17:25:47 23° NW 17:30:13 10° N
Meteor 1-25 Rocket 4.5 17:20:40 10° NNW 17:26:14 69° W 17:31:51 10° S
Cosmos 44 3.7 17:22:36 10° NW 17:27:51 71° SW 17:31:48 19° SSE
EO 1 Delta rocket 4.2 17:23:54 10° NNE 17:29:08 81° E 17:35:40 10° S
Cosmos 783 Rocket 4.4 17:24:16 10° SSW 17:29:34 85° ESE 17:31:44 37° NNE
Okean O Rocket 4.2 17:27:09 10° SW 17:30:31 22° W 17:33:55 10° NW
Cosmos 2366 rocket 4.2 17:28:23 10° NNW 17:34:35 72° W 17:40:41 10° S
Cosmos 1656 Rocket 4.4 17:29:24 10° NNW 17:33:51 37° NNE 17:33:51 37° NNE
Cosmos 1151 Rocket 3.2 17:30:49 10° SSW 17:35:04 70° W 17:36:52 34° N
Cosmos 2237 Rocket 3.2 17:30:54 10° WSW 17:36:13 42° NW 17:40:11 17° NNE
Cosmos 1933 Rocket 4.2 17:33:02 10° N 17:36:05 42° N 17:36:05 42° N
CZ-4 R/B 1.4 17:38:52 65° SSW 17:39:17 73° WSW 17:43:18 10° NNW
Cosmos 1328 Rocket 3.8 17:39:54 10° SSW 17:44:10 64° WNW 17:45:21 44° NNW
CSL-04 Rocket 3.5 17:44:43 67° ESE 17:45:14 72° ENE 17:50:33 10° NNW
Cosmos 2369 Rocket 2.0 17:41:40 10° NNW 17:47:25 74° ENE 17:47:50 70° E
USA 215 3.2 17:50:48 52° NE 17:52:38 88° NNW 17:59:11 10° WSW
Cosmos 489 Rocket 4.3 17:50:58 10° SSW 17:57:10 76° ESE 17:57:38 71° ENE
Cosmos 2239 Rocket 4.4 17:55:12 10° N 18:00:38 65° NNE 18:00:38 65° NNE
ISS -1.2 17:59:37 10° W 18:00:57 22° W 18:00:57 22° W
Cosmos 1867 4.1 18:01:37 10° WSW 18:06:57 54° NW 18:07:37 51° NNW
CZ-4B R/B 4.4 18:07:34 13° WNW 18:07:49 13° WNW 18:09:16 10° W
CZ-2C R/B 4.0 18:06:18 10° S 18:11:10 43° W 18:15:52 10° NNW
Cosmos 1943 Rocket 2.9 18:06:31 10° NW 18:11:51 50° WSW 18:14:17 30° SSW
ARGOS 3.7 18:19:45 52° NNW 18:19:45 52° NNW 18:23:51 10° NNW
Nadezhda 3 Rocket 4.3 18:17:57 10° S 18:33:04 - N 18:22:55 58° SSW
SL-16 R/B 3.0 18:19:21 10° SW 18:24:47 46° NW 18:25:38 43° NNW
USA 267 4.0 18:25:00 36° S 18:26:58 46° SW 18:33:15 10° WNW
NOSS 3-3 (A) 4.4 18:21:30 10° NW 18:28:26 70° NNE 18:28:26 70° NNE
NOSS 3-3 (C) 4.4 18:21:36 10° NW 18:28:30 70° NNE 18:28:30 70° NNE
Cosmos 1821 Rocket 4.5 18:30:30 10° NNW 18:36:34 57° W 18:38:27 42° SW
H-2A R/B 4.0 19:01:54 23° WSW 19:03:10 25° W 19:07:28 10° NW
Cosmos 2369 Rocket 4.5 19:26:42 10° NW 19:29:41 20° W 19:29:41 20° W
